UPSat (42716 NORAD) Tracking and Keplerian Element Data

This shows tracking and keplerian element data for the satellite.

Feedback or suggestion? Click here.




ElementValue
Catalog42716
NameUPSat
Epoch Orbit8471
Epoch Day312.71028111
Epoch Year2018
RAAN314.8638
Inclination51.6188
Eccentricity0.0006421
Argument of Perigee71.8938
Mean Anonmoly288.2777
Mean Motion16.15621203
Decay Rate0.01237261
L11 42716U 98067LX 18312.71028111 .01237261 11102-2 87922-3 0 9996
L22 42716 51.6188 314.8638 0006421 71.8938 288.2777 16.15621203 84711

Live tracking and technical data element details for UPSat (NORAD 42716). UPSat can be tracked NOW for your location showing map with azimuth and elevation plus other details from your city location.

Track the satellite on the map from your city or location and see movement details for azimuth, elevation, latitude, longitude, range, height, and movement on the map or in text.







IsCatalogInMostPopularTable: catalog: 42716, numindb: 154
Update: records affected: 1



GetName: 42716 UPSat

Hit Count: updated at: Wed, 14 Nov 2018 16:21:14 GMT